sat.trackr.live / text

‹ back to catalog

STARLINK-32893

NORAD 62897 · 2025-024U

PAYLOAD ACTIVE UNKNOWN

§ Identity

Operator
Country
US
Launch date
2025-02-04
Launch site
AFETR
Launch vehicle
Mass (kg)
RCS (m²)

Purposes: comms

External: N2YO · Heavens-Above · Gunter

§ Orbital elements

Epoch: 2026-05-25T00:28:35.458176Z

Period
94.27 min
Inclination
43.0027°
Eccentricity
0.0002442
Mean motion
15.27589160 rev/d
Perigee alt
481.3 km
Apogee alt
484.7 km
Semi-major
6,861.2 km
B*
4.1067e-4
RAAN
253.9471°
Arg perigee
272.7652°
Mean anomaly
87.2920°
Rev number
7,394

§ Raw data

STARLINK-328931 62897U 25024U   26145.01985484  .00011059  00000+0  41067-3 0  99982 62897  43.0027 253.9471 0002442 272.7652  87.2920 15.27589160 73949

JSON: /api/v1/satellites/62897 · /tle

For live sub-satellite position, see the globe view (requires WebGL).

§ Visibility from observer

Set your observer location to see the next 7 days of passes ≥ 10°. The values pass through the URL so the page stays shareable.

No JS? Fill the form by hand. The geolocation button needs JavaScript.